TimeHST,TemperatureF,Dew PointF,Humidity,Sea Level PressureIn,VisibilityMPH,Wind Direction,Wind SpeedMPH,Gust SpeedMPH,PrecipitationIn,Events,Conditions,WindDirDegrees,DateUTC
12:55 AM,63.7,54.3,72,30.01,10.0,Variable,6.9,-,N/A,,Scattered Clouds,0,2013-01-20 10:55:00
1:55 AM,63.0,52.9,70,30.00,10.0,North,8.1,-,N/A,,Clear,360,2013-01-20 11:55:00
2:55 AM,61.9,53.6,74,29.99,10.0,Variable,6.9,-,N/A,,Clear,0,2013-01-20 12:55:00
3:55 AM,61.2,53.1,75,29.97,10.0,NNW,5.8,-,N/A,,Clear,340,2013-01-20 13:55:00
4:55 AM,62.1,54.9,77,29.99,10.0,NNW,5.8,-,N/A,,Clear,340,2013-01-20 14:55:00
5:38 AM,62.6,55.4,77,30.00,10.0,NNW,8.1,-,N/A,,Mostly Cloudy,340,2013-01-20 15:38:00
5:43 AM,62.6,55.4,77,30.00,10.0,North,9.2,-,N/A,,Scattered Clouds,350,2013-01-20 15:43:00
5:55 AM,62.1,54.9,77,30.01,10.0,North,8.1,-,N/A,,Scattered Clouds,350,2013-01-20 15:55:00
6:55 AM,61.2,54.0,77,30.03,10.0,NNW,4.6,-,N/A,,Clear,340,2013-01-20 16:55:00
7:55 AM,62.4,55.2,77,30.05,10.0,NNW,5.8,-,N/A,,Clear,340,2013-01-20 17:55:00
8:55 AM,66.2,55.4,68,30.05,10.0,Variable,6.9,-,N/A,,Partly Cloudy,0,2013-01-20 18:55:00
9:55 AM,68.2,55.2,63,30.06,10.0,North,12.7,17.3,N/A,,Clear,350,2013-01-20 19:55:00
10:55 AM,70.0,53.8,56,30.06,10.0,North,15.0,20.7,N/A,,Partly Cloudy,360,2013-01-20 20:55:00
11:55 AM,71.2,53.2,53,30.05,10.0,North,12.7,19.6,N/A,,Partly Cloudy,360,2013-01-20 21:55:00
12:55 PM,72.5,53.8,52,30.01,10.0,North,16.1,-,N/A,,Clear,10,2013-01-20 22:55:00
1:55 PM,72.0,54.7,54,29.99,10.0,NNE,11.5,-,N/A,,Clear,20,2013-01-20 23:55:00
2:55 PM,72.3,54.0,52,29.97,10.0,NNE,10.4,19.6,N/A,,Clear,30,2013-01-21 00:55:00
3:55 PM,72.0,52.7,51,29.98,10.0,NNE,10.4,-,N/A,,Clear,20,2013-01-21 01:55:00
4:55 PM,70.0,54.0,57,29.99,10.0,North,8.1,-,N/A,,Clear,350,2013-01-21 02:55:00
5:55 PM,67.8,55.0,64,30.01,10.0,North,8.1,-,N/A,,Clear,360,2013-01-21 03:55:00
6:55 PM,66.2,55.9,69,30.02,10.0,NNW,6.9,-,N/A,,Mostly Cloudy,330,2013-01-21 04:55:00
7:01 PM,66.2,55.4,68,30.03,10.0,NNW,8.1,-,N/A,,Mostly Cloudy,330,2013-01-21 05:01:00
7:10 PM,66.2,55.4,68,30.03,10.0,NNW,6.9,-,N/A,,Scattered Clouds,330,2013-01-21 05:10:00
7:55 PM,65.1,56.5,74,30.05,10.0,NNW,6.9,-,N/A,,Clear,330,2013-01-21 05:55:00
8:55 PM,64.4,55.8,73,30.05,10.0,NW,8.1,-,N/A,,Clear,320,2013-01-21 06:55:00
9:55 PM,63.7,55.4,74,30.06,10.0,NNW,8.1,-,N/A,,Clear,330,2013-01-21 07:55:00
10:55 PM,64.4,55.8,73,30.05,10.0,NNW,8.1,-,N/A,,Clear,340,2013-01-21 08:55:00
11:55 PM,63.9,55.2,73,30.04,10.0,NW,4.6,-,N/A,,Clear,320,2013-01-21 09:55:00